• In Italy
  • List of Countries
  • For 7 days
  • Water Temperature
  • Satellite Maps
  • Weather Map
  • Weather Widgets
  • user-avatar
    Login

    Hourly Weather Amar

    Today, 22 June, Friday

    Time Temperature Precipitation Wind Pressure Humidity
    00:00 +39°C° 0 mm 8 mps 749 mmHg 29%
    01:00 +39°C° 0 mm 8 mps 748 mmHg 31%
    02:00 +38°C° 0 mm 8 mps 748 mmHg 32%
    03:00 +38°C° 0 mm 8 mps 748 mmHg 35%
    04:00 +38°C° 0 mm 8 mps 748 mmHg 35%
    05:00 +37°C° 0 mm 8 mps 749 mmHg 35%
    06:00 +37°C° 0 mm 8 mps 749 mmHg 36%
    07:00 +39°C° 0 mm 8 mps 749 mmHg 31%
    08:00 +40°C° 0 mm 9 mps 749 mmHg 26%
    09:00 +43°C° 0 mm 9 mps 749 mmHg 21%
    10:00 +43°C° 0 mm 10 mps 749 mmHg 20%
    11:00 +44°C° 0 mm 10 mps 749 mmHg 19%
    12:00 +44°C° 0 mm 10 mps 749 mmHg 18%
    13:00 +44°C° 0 mm 9 mps 748 mmHg 18%
    14:00 +44°C° 0 mm 9 mps 748 mmHg 19%
    15:00 +44°C° 0 mm 9 mps 747 mmHg 19%
    16:00 +43°C° 0 mm 8 mps 747 mmHg 21%
    17:00 +41°C° 0 mm 8 mps 747 mmHg 22%
    18:00 +40°C° 0 mm 7 mps 747 mmHg 23%
    19:00 +40°C° 0 mm 6 mps 747 mmHg 25%
    20:00 +39°C° 0 mm 5 mps 747 mmHg 27%
    21:00 +37°C° 0 mm 4 mps 748 mmHg 28%
    22:00 +37°C° 0 mm 4 mps 747 mmHg 27%
    23:00 +37°C° 0 mm 4 mps 747 mmHg 27%

    Tomorrow, 23 June, Saturday

    Time Temperature Precipitation Wind Pressure Humidity
    00:00 +37°C° 0 mm 4 mps 747 mmHg 26%
    01:00 +36°C° 0 mm 5 mps 747 mmHg 26%
    02:00 +36°C° 0 mm 6 mps 747 mmHg 26%
    03:00 +36°C° 0 mm 6 mps 747 mmHg 27%
    04:00 +36°C° 0 mm 7 mps 747 mmHg 29%
    05:00 +36°C° 0 mm 7 mps 748 mmHg 32%
    06:00 +37°C° 0 mm 8 mps 748 mmHg 35%
    07:00 +39°C° 0 mm 8 mps 748 mmHg 32%
    08:00 +40°C° 0 mm 9 mps 748 mmHg 29%
    09:00 +43°C° 0 mm 9 mps 749 mmHg 26%
    10:00 +43°C° 0 mm 9 mps 749 mmHg 24%
    11:00 +44°C° 0 mm 9 mps 748 mmHg 21%
    12:00 +45°C° 0 mm 9 mps 748 mmHg 19%
    13:00 +44°C° 0 mm 9 mps 748 mmHg 20%
    14:00 +44°C° 0 mm 9 mps 748 mmHg 20%
    15:00 +44°C° 0 mm 9 mps 747 mmHg 21%
    16:00 +43°C° 0 mm 9 mps 747 mmHg 22%
    17:00 +41°C° 0 mm 8 mps 747 mmHg 24%
    18:00 +40°C° 0 mm 7 mps 747 mmHg 25%
    19:00 +39°C° 0 mm 6 mps 747 mmHg 27%
    20:00 +39°C° 0 mm 5 mps 747 mmHg 29%
    21:00 +37°C° 0 mm 4 mps 748 mmHg 31%
    22:00 +37°C° 0 mm 4 mps 747 mmHg 31%
    23:00 +36°C° 0 mm 4 mps 747 mmHg 30%

    Day after tomorrow, 24 June, Sunday

    Time Temperature Precipitation Wind Pressure Humidity
    00:00 +36°C° 0 mm 4 mps 747 mmHg 29%
    01:00 +36°C° 0 mm 4 mps 747 mmHg 30%
    02:00 +36°C° 0 mm 5 mps 747 mmHg 31%
    03:00 +36°C° 0 mm 5 mps 747 mmHg 31%
    04:00 +36°C° 0 mm 6 mps 747 mmHg 32%
    05:00 +36°C° 0 mm 6 mps 747 mmHg 32%
    06:00 +36°C° 0 mm 6 mps 747 mmHg 32%
    07:00 +39°C° 0 mm 7 mps 748 mmHg 29%
    08:00 +40°C° 0 mm 7 mps 748 mmHg 26%
    09:00 +43°C° 0 mm 7 mps 748 mmHg 23%
    10:00 +44°C° 0 mm 7 mps 748 mmHg 20%
    11:00 +45°C° 0 mm 7 mps 748 mmHg 18%
    12:00 +46°C° 0 mm 7 mps 748 mmHg 16%
    13:00 +46°C° 0 mm 7 mps 748 mmHg 17%
    14:00 +45°C° 0 mm 7 mps 747 mmHg 17%
    15:00 +45°C° 0 mm 7 mps 747 mmHg 18%
    16:00 +44°C° 0 mm 7 mps 747 mmHg 21%
    17:00 +42°C° 0 mm 6 mps 747 mmHg 24%
    18:00 +40°C° 0 mm 6 mps 747 mmHg 28%
    19:00 +38°C° 0 mm 4 mps 747 mmHg 31%
    20:00 +37°C° 0 mm 3 mps 748 mmHg 33%
    21:00 +36°C° 0 mm 2 mps 748 mmHg 36%
    22:00 +36°C° 0 mm 2 mps 748 mmHg 35%
    23:00 +36°C° 0 mm 2 mps 748 mmHg 34%

    25 June, Monday

    Time Temperature Precipitation Wind Pressure Humidity
    00:00 +36°C° 0 mm 2 mps 747 mmHg 32%
    01:00 +35°C° 0 mm 3 mps 747 mmHg 33%
    02:00 +35°C° 0 mm 3 mps 747 mmHg 34%
    03:00 +35°C° 0 mm 4 mps 747 mmHg 34%
    04:00 +35°C° 0 mm 4 mps 747 mmHg 32%
    05:00 +36°C° 0 mm 4 mps 747 mmHg 31%
    06:00 +36°C° 0 mm 4 mps 747 mmHg 29%
    07:00 +39°C° 0 mm 5 mps 748 mmHg 24%
    08:00 +41°C° 0 mm 5 mps 748 mmHg 20%
    09:00 +43°C° 0 mm 5 mps 748 mmHg 16%
    10:00 +45°C° 0 mm 5 mps 748 mmHg 16%
    11:00 +46°C° 0 mm 5 mps 747 mmHg 17%
    12:00 +47°C° 0 mm 5 mps 747 mmHg 17%
    13:00 +46°C° 0 mm 5 mps 747 mmHg 19%
    14:00 +46°C° 0 mm 6 mps 746 mmHg 21%
    15:00 +46°C° 0 mm 6 mps 746 mmHg 23%
    16:00 +45°C° 0 mm 6 mps 746 mmHg 25%
    17:00 +44°C° 0 mm 6 mps 746 mmHg 27%
    18:00 +42°C° 0 mm 5 mps 746 mmHg 29%
    19:00 +41°C° 0 mm 4 mps 746 mmHg 31%
    20:00 +40°C° 0 mm 4 mps 746 mmHg 33%
    21:00 +38°C° 0 mm 3 mps 746 mmHg 35%
    22:00 +38°C° 0 mm 3 mps 746 mmHg 33%
    23:00 +37°C° 0 mm 3 mps 746 mmHg 31%

    26 June, Tuesday

    Time Temperature Precipitation Wind Pressure Humidity
    00:00 +37°C° 0 mm 3 mps 746 mmHg 30%
    01:00 +37°C° 0 mm 3 mps 745 mmHg 29%
    02:00 +37°C° 0 mm 4 mps 745 mmHg 28%
    03:00 +37°C° 0 mm 4 mps 745 mmHg 27%
    04:00 +37°C° 0 mm 4 mps 745 mmHg 27%
    05:00 +37°C° 0 mm 5 mps 745 mmHg 26%
    06:00 +37°C° 0 mm 5 mps 745 mmHg 26%
    07:00 +40°C° 0 mm 5 mps 745 mmHg 22%
    08:00 +42°C° 0 mm 6 mps 746 mmHg 19%
    09:00 +45°C° 0 mm 6 mps 746 mmHg 16%
    10:00 +46°C° 0 mm 6 mps 745 mmHg 17%
    11:00 +47°C° 0 mm 7 mps 745 mmHg 18%
    12:00 +49°C° 0 mm 7 mps 745 mmHg 19%
    13:00 +47°C° 0 mm 7 mps 744 mmHg 19%
    14:00 +47°C° 0 mm 7 mps 744 mmHg 19%
    15:00 +47°C° 0 mm 7 mps 744 mmHg 20%
    16:00 +46°C° 0 mm 6 mps 744 mmHg 22%
    17:00 +45°C° 0 mm 6 mps 744 mmHg 24%
    18:00 +43°C° 0 mm 5 mps 744 mmHg 26%
    19:00 +42°C° 0 mm 5 mps 744 mmHg 27%
    20:00 +41°C° 0 mm 4 mps 744 mmHg 29%
    21:00 +39°C° 0 mm 3 mps 744 mmHg 30%
    22:00 +39°C° 0 mm 3 mps 744 mmHg 29%
    23:00 +39°C° 0 mm 3 mps 744 mmHg 27%

    27 June, Wednesday

    Time Temperature Precipitation Wind Pressure Humidity
    00:00 +38°C° 0 mm 2 mps 744 mmHg 26%
    01:00 +38°C° 0 mm 2 mps 744 mmHg 28%
    02:00 +37°C° 0 mm 2 mps 743 mmHg 29%
    03:00 +35°C° 0 mm 1 mps 743 mmHg 31%
    04:00 +37°C° 0 mm 2 mps 744 mmHg 28%
    05:00 +38°C° 0 mm 3 mps 744 mmHg 25%
    06:00 +38°C° 0 mm 3 mps 745 mmHg 23%
    07:00 +41°C° 0 mm 4 mps 745 mmHg 23%
    08:00 +42°C° 0 mm 5 mps 745 mmHg 23%
    09:00 +45°C° 0 mm 6 mps 745 mmHg 23%
    10:00 +46°C° 0 mm 6 mps 745 mmHg 24%
    11:00 +46°C° 0 mm 7 mps 745 mmHg 25%
    12:00 +47°C° 0 mm 7 mps 744 mmHg 26%
    13:00 +47°C° 0 mm 7 mps 744 mmHg 27%
    14:00 +46°C° 0 mm 7 mps 744 mmHg 27%
    15:00 +46°C° 0 mm 7 mps 743 mmHg 28%
    16:00 +45°C° 0 mm 6 mps 744 mmHg 30%
    17:00 +44°C° 0 mm 6 mps 744 mmHg 32%
    18:00 +42°C° 0 mm 5 mps 744 mmHg 33%
    19:00 +41°C° 0 mm 4 mps 744 mmHg 33%
    20:00 +41°C° 0 mm 4 mps 744 mmHg 33%
    21:00 +39°C° 0 mm 3 mps 744 mmHg 32%
    22:00 +39°C° 0 mm 3 mps 744 mmHg 32%
    23:00 +38°C° 0 mm 3 mps 744 mmHg 32%
    Show more